Location: Park Creek Village Mobile Home Park
(38.2885°N, 122.4714°W)
Time: 17:40:11
(UTC+00:00)

Meteor 1-18 Rocket - Pass Details

Date: 14 December 2019
Orbit: 837 x 909 km, 81.2° (Epoch: 24 January)

Event Time Altitude Azimuth Distance (km) Brightness Sun altitude
Exits shadow 13:22:26 21° 345° (NNW) 1,798 5.6 -22.1°
Maximum altitude 13:26:12 74° 264° (W) 880 4.1 -21.3°
Drops below altitude 10° 13:31:46 10° 180° (S) 2,470 6.8 -20.3°
Sets 13:34:12 0° 178° (S) 3,411 7.6 -19.8°
